Theta_e
352 353 356 358 357 359 359 359 359 358 359 359 359 358 358 358 357 357 356 355 355 355 354 354 355 354 354 353 353 353 353 353 353 353 353 353 352 351 350 349 350 348 346 346 347 346 345 345 345 345 344 342 342 341 341 341 342 342 345 347 348 348 349 348 348 348 349 349 349 349 348 348 348 348 348 346 345 346 346 346 346 343 345 345 346
351 355 357 359 357 358 359 359 358 358 359 359 358 358 358 357 357 356 356 355 355 354 354 354 354 354 353 353 353 352 353 353 353 353 353 352 351 350 350 349 348 346 345 345 346 346 346 345 344 344 345 344 343 343 342 341 341 343 345 347 348 348 348 348 349 349 349 349 349 349 348 347 347 347 346 346 347 346 346 346 345 344 344 345 345
353 353 356 357 358 358 358 358 358 358 358 358 358 357 358 357 356 356 356 355 355 354 354 354 354 354 353 352 352 352 353 353 353 353 352 352 350 349 349 349 348 346 345 345 346 346 346 346 345 344 344 344 344 343 342 340 341 344 344 345 346 347 348 348 349 349 349 349 349 349 348 348 347 345 344 347 347 345 345 345 345 343 342 344 345
350 352 355 357 357 357 357 358 357 357 357 357 357 356 357 357 356 356 355 355 354 354 354 354 354 353 352 352 352 352 352 353 353 352 351 351 350 349 349 349 346 345 345 347 346 346 346 345 345 345 345 344 344 344 343 343 342 343 344 344 345 344 345 345 348 350 349 350 349 348 348 346 346 347 348 347 347 346 345 343 343 343 344 344 344
351 351 354 355 357 357 356 357 357 357 357 356 356 356 357 357 356 356 355 355 355 354 353 353 353 352 352 352 351 352 352 352 352 351 350 350 350 349 350 348 345 347 347 346 345 346 345 345 346 346 346 346 344 343 343 343 342 342 343 343 343 343 343 343 344 349 349 349 348 349 348 347 347 346 347 347 346 345 345 344 342 342 342 343 343
350 351 353 353 352 357 356 356 356 357 356 356 357 357 356 356 356 356 355 355 354 354 353 353 352 352 352 351 351 352 352 352 351 351 350 351 351 351 350 347 346 348 347 347 346 345 346 347 347 347 348 348 347 345 343 342 342 342 341 342 341 342 342 341 342 341 342 345 350 345 345 345 346 345 347 346 346 344 344 343 342 341 341 341 340
350 351 351 351 350 354 355 355 356 356 356 356 356 356 356 356 355 355 355 354 354 353 353 352 352 351 351 351 351 351 351 350 350 350 352 352 352 351 347 347 347 348 347 346 346 348 348 347 347 348 348 348 347 346 343 342 342 342 341 341 341 341 341 342 340 341 343 345 348 339 340 342 344 345 346 346 346 344 344 344 343 341 340 340 340
350 349 350 349 351 356 355 355 355 355 355 356 356 356 356 355 355 355 354 354 354 353 352 352 351 351 350 350 351 351 350 350 349 350 352 352 352 350 349 347 347 348 347 348 348 349 348 348 348 348 348 347 347 346 345 343 342 341 341 340 339 339 340 339 343 345 347 343 338 337 340 340 339 342 345 346 346 344 344 343 342 342 342 341 339
348 349 348 349 353 354 354 354 354 355 355 356 356 355 355 355 355 354 354 353 353 352 352 351 351 350 350 350 350 350 350 350 350 351 352 351 350 350 350 349 350 349 350 350 350 351 349 349 348 347 348 347 346 346 346 343 341 341 340 340 339 338 337 340 340 344 345 338 339 341 339 341 340 340 343 345 345 344 343 342 343 342 342 340 339
348 350 349 350 352 354 354 354 353 355 355 355 355 355 354 355 354 354 353 353 352 352 352 351 351 351 351 351 350 350 351 351 352 353 351 350 349 349 350 351 349 350 350 350 350 349 348 348 348 347 347 346 346 346 346 345 341 341 340 340 338 340 339 342 343 346 339 339 340 342 342 345 339 339 341 342 342 342 342 341 341 342 342 342 340
349 350 350 351 350 353 353 353 353 354 354 354 354 354 354 354 353 353 352 353 352 352 352 351 351 351 351 351 350 351 351 352 352 351 351 349 348 349 350 352 352 351 351 350 349 349 348 348 347 347 346 346 347 346 345 345 344 341 340 339 338 337 342 341 342 335 334 335 334 338 341 344 338 338 339 339 339 340 338 339 341 340 339 338 338
348 350 350 350 355 353 352 352 353 354 354 354 354 353 353 353 353 352 353 353 352 352 352 352 351 351 351 351 350 350 351 351 351 351 352 350 349 349 350 350 351 351 350 349 349 348 348 347 347 346 346 346 346 346 345 345 345 341 341 339 339 337 341 340 340 339 341 340 341 341 338 336 337 337 339 341 340 338 337 337 339 338 337 335 335
349 348 349 354 354 352 352 352 353 353 353 353 353 353 353 353 353 353 353 353 353 352 352 352 352 351 351 350 349 349 350 351 351 351 351 350 350 350 350 350 350 350 350 349 349 348 347 346 346 345 346 345 346 345 346 346 346 342 341 340 340 337 341 340 341 339 339 337 336 338 338 339 339 338 339 339 338 337 337 337 336 336 336 335 335
348 348 350 351 350 353 351 352 352 353 353 353 352 352 353 352 352 353 353 353 352 352 352 352 351 350 350 350 349 349 350 351 350 350 350 350 350 349 350 350 350 350 349 349 348 347 346 346 345 346 346 346 345 346 346 347 346 343 341 341 340 341 342 343 346 340 339 339 341 339 339 339 338 340 338 339 338 339 338 337 337 336 337 336 336
348 349 350 349 349 351 353 352 352 352 351 351 352 352 352 352 352 353 353 353 352 352 351 351 350 349 348 349 350 350 350 350 350 350 350 349 349 349 349 349 350 349 348 348 347 346 346 347 346 346 345 345 345 346 346 346 345 344 341 342 340 341 341 342 338 340 340 338 337 337 337 337 338 338 337 338 337 337 335 336 336 336 336 335 334
350 349 347 348 347 349 351 353 352 351 351 352 352 352 352 352 352 352 352 352 352 351 351 350 349 347 347 348 348 349 350 350 350 349 349 348 348 348 349 349 349 348 347 347 346 346 346 345 345 346 345 345 345 346 345 345 345 343 342 340 341 342 341 343 340 341 338 337 337 337 337 337 338 338 337 337 337 337 335 335 335 335 335 335 335
350 349 347 346 347 347 348 349 351 352 351 351 351 351 351 351 352 352 352 351 352 352 350 349 349 348 348 348 349 349 350 350 349 348 348 348 348 348 348 348 348 347 347 346 346 346 345 344 345 346 345 345 345 345 345 344 344 343 341 339 342 340 344 345 339 342 341 341 340 338 335 335 337 337 336 337 337 336 335 335 335 335 334 334 334
351 349 346 345 345 345 348 349 351 351 351 353 351 351 351 351 351 351 351 351 351 350 349 349 349 348 348 349 349 349 350 349 349 348 348 348 348 347 348 348 347 347 346 345 345 345 344 344 344 345 345 346 346 345 345 344 344 343 341 339 342 342 345 346 340 341 341 343 339 337 337 338 338 336 335 336 336 335 335 335 336 335 335 335 335
347 348 346 345 344 345 346 349 350 349 350 348 349 354 351 351 351 351 351 351 350 350 349 349 349 349 350 350 349 349 349 350 349 348 348 348 348 347 347 347 346 346 345 344 344 344 343 343 342 344 345 346 346 345 345 344 343 342 342 340 341 344 345 345 338 341 341 341 338 337 337 338 337 337 337 336 336 336 336 336 336 335 334 333 334
348 346 346 344 344 345 346 347 347 348 348 347 348 350 352 351 351 351 351 351 350 350 349 349 349 349 350 349 349 349 349 349 350 349 349 348 347 346 347 346 345 345 345 344 344 342 341 341 342 343 344 345 345 345 344 344 342 341 342 341 343 342 343 344 341 338 339 338 338 337 338 338 337 337 336 336 335 335 335 335 334 334 335 335 335
342 343 350 344 347 345 345 345 346 346 347 347 348 349 349 352 351 351 351 350 350 350 350 349 349 349 350 349 348 349 350 349 349 347 349 348 347 347 346 345 345 345 344 343 342 341 340 340 342 343 343 344 344 344 345 343 343 342 341 343 341 340 345 342 340 340 340 339 338 336 338 338 337 336 336 335 335 335 334 334 335 335 335 334 333
337 342 342 343 348 349 345 346 345 345 347 349 347 349 350 349 349 350 350 351 350 350 351 348 350 348 349 349 349 349 347 348 349 348 348 347 347 346 345 345 344 344 344 342 341 341 340 340 341 342 343 344 344 345 344 343 342 343 343 342 341 345 345 345 342 339 339 338 338 337 337 337 337 337 336 337 336 335 334 334 334 333 333 334 333
335 340 340 341 341 345 347 349 347 344 344 345 347 347 348 348 348 347 348 349 350 349 348 350 347 348 348 347 349 346 346 345 348 347 346 346 346 345 344 344 343 344 343 341 341 341 342 341 340 340 341 342 345 345 344 343 344 343 343 344 345 345 344 345 342 339 340 339 337 338 337 336 335 336 337 336 335 333 333 333 333 333 333 333 333
339 339 337 342 340 340 342 344 342 344 345 344 347 347 346 347 345 346 347 346 346 347 348 347 346 348 345 348 347 350 348 347 347 347 347 347 346 345 344 343 343 342 341 341 341 341 341 340 340 340 342 340 343 342 342 344 345 346 345 346 344 342 344 344 340 339 340 338 336 338 337 337 337 337 337 336 335 335 335 334 334 334 333 333 333
344 340 339 339 340 341 339 341 343 341 342 343 345 347 348 343 342 342 343 343 344 348 347 348 347 345 347 348 347 347 346 348 349 349 345 345 345 344 344 343 343 343 341 340 338 337 339 336 336 336 336 338 340 341 341 341 344 345 344 345 345 343 345 345 339 338 340 340 338 340 338 337 336 336 335 336 335 333 333 333 333 332 332 332 331
342 337 335 338 340 343 340 341 343 344 345 347 346 345 344 342 340 340 342 343 344 346 346 347 348 346 346 347 348 347 345 348 347 346 346 345 343 343 342 340 343 341 340 339 337 337 337 336 335 334 337 340 340 340 340 340 342 343 344 346 343 343 342 341 343 339 340 341 340 339 338 339 338 338 336 336 335 335 334 333 332 332 332 331 331
340 340 339 338 340 343 341 343 342 342 342 347 346 347 345 344 342 343 342 341 346 346 344 346 347 347 346 346 345 346 343 342 342 343 343 342 340 339 338 338 339 338 340 339 339 337 338 337 337 339 341 337 336 337 339 339 339 337 341 343 346 340 344 341 341 340 341 340 340 340 340 340 340 338 336 335 335 335 334 334 334 332 332 332 333
339 340 340 341 341 340 343 342 341 343 343 347 346 340 344 343 344 345 346 345 343 345 346 347 347 345 347 347 345 341 339 337 340 342 341 340 340 340 342 338 339 339 341 341 340 339 339 341 341 338 336 336 334 336 336 335 336 338 339 342 344 341 342 343 345 340 340 340 340 342 341 341 340 337 335 335 336 335 335 335 334 334 333 332 332
337 338 340 341 341 341 341 340 340 341 343 343 342 340 340 344 347 348 346 347 346 346 346 346 346 349 347 346 347 344 340 341 338 341 341 343 343 345 342 342 342 341 343 339 338 341 341 339 338 337 338 337 336 337 335 336 337 338 344 338 339 339 340 341 340 342 342 341 341 342 341 340 339 337 336 336 336 335 335 334 334 334 333 333 332
340 341 342 341 343 341 341 341 341 342 342 341 340 338 344 344 344 346 347 346 344 346 346 344 346 350 348 347 348 350 343 341 341 341 342 343 344 344 343 342 342 342 342 343 344 340 338 338 340 339 335 337 340 338 338 337 335 337 340 339 337 342 342 340 341 340 342 341 341 341 342 341 340 338 337 337 337 335 335 335 334 333 333 332 332
342 341 342 340 343 343 341 342 341 341 338 339 340 342 344 343 343 347 345 347 347 344 343 345 347 339 345 350 352 351 347 344 342 342 343 343 344 345 343 343 341 341 344 344 345 342 340 340 340 340 340 338 340 340 334 337 334 335 336 335 341 342 335 338 338 343 343 342 341 341 341 340 339 340 339 339 338 336 335 335 334 334 334 333 333
339 339 341 342 340 341 342 342 341 341 338 337 340 342 344 348 345 344 345 344 349 348 346 345 345 347 347 350 351 349 348 345 345 343 341 342 343 343 344 343 342 342 343 341 342 343 340 337 344 347 345 345 342 342 342 339 337 334 335 335 337 335 338 340 339 339 340 341 341 341 340 339 340 340 340 340 339 337 335 335 335 335 335 333 333
340 343 344 341 342 345 342 340 341 341 337 337 341 343 345 345 343 344 343 344 345 346 343 345 343 344 342 344 345 345 343 345 348 343 340 341 343 343 341 342 343 344 344 344 343 342 342 344 344 344 342 342 343 342 339 342 340 339 341 335 340 338 337 339 339 339 340 341 344 342 340 339 338 339 340 338 340 338 336 336 336 336 335 334 335
340 343 342 341 343 343 343 343 342 341 342 342 342 343 345 345 345 344 344 345 344 344 346 345 347 341 343 343 342 341 341 343 345 343 342 341 342 342 341 342 342 343 344 345 342 340 340 338 341 340 340 341 340 342 338 338 338 340 337 341 337 340 341 339 340 339 340 339 341 340 338 339 339 339 338 338 339 339 339 337 337 336 334 335 335
340 341 340 342 344 342 342 340 339 341 343 344 344 343 344 345 344 344 346 346 342 342 347 344 350 340 340 341 341 341 341 342 341 343 341 343 343 343 341 342 342 343 342 342 342 342 343 341 337 338 338 339 338 339 339 339 338 339 340 344 339 339 340 339 341 341 341 340 341 340 342 343 345 338 337 337 339 340 340 337 337 336 336 335 336
341 341 341 341 341 341 342 341 341 341 343 344 345 344 344 344 344 343 346 344 343 344 346 346 340 341 339 342 344 343 342 340 340 343 347 344 342 343 346 344 343 343 341 343 345 342 342 341 341 340 335 336 336 336 338 339 340 341 341 341 341 339 339 339 340 341 342 340 338 338 338 338 337 338 338 341 337 338 338 338 338 336 336 336 336
342 341 342 342 341 342 342 341 341 341 341 343 344 344 343 343 342 343 342 343 341 344 345 349 342 344 344 342 342 340 340 339 339 342 344 340 341 342 345 344 343 342 343 343 343 342 342 342 341 341 339 334 332 333 337 339 339 340 339 336 337 339 339 340 341 342 342 338 337 340 339 335 337 338 339 340 338 337 339 337 337 337 336 336 336
344 343 344 343 342 341 341 341 341 341 341 342 343 343 342 342 341 341 343 343 345 345 344 342 342 345 344 339 341 342 339 339 339 339 342 340 340 341 341 340 343 344 344 343 342 342 342 342 340 340 339 339 339 334 336 337 338 337 338 336 338 341 341 341 339 341 339 338 337 336 337 339 339 339 340 341 338 339 338 338 338 338 337 336 336
343 343 344 344 342 342 341 339 340 340 340 342 342 342 342 342 341 340 344 344 346 345 343 343 342 341 339 337 339 339 337 336 340 341 339 343 339 339 342 343 343 344 343 341 342 341 342 341 340 339 341 339 336 336 337 338 337 337 337 337 337 338 340 341 342 340 338 337 338 335 338 338 337 338 337 337 340 339 339 337 335 336 337 337 336
342 344 343 344 343 342 342 340 341 339 339 339 340 340 339 338 338 339 340 341 341 340 343 342 343 341 339 340 338 339 339 338 343 343 343 340 340 340 340 340 343 342 341 340 338 338 340 341 340 339 338 337 339 339 339 338 338 338 336 336 336 336 338 339 337 338 340 339 338 339 336 338 336 336 338 339 338 340 339 338 338 338 336 337 336
341 342 341 343 343 340 340 338 340 339 338 338 338 338 336 334 336 336 336 337 338 340 339 341 338 339 338 339 340 341 341 341 342 341 341 340 339 338 338 342 342 341 341 340 339 340 341 341 339 339 338 335 335 339 339 339 335 333 335 334 336 336 336 336 336 337 338 339 338 340 338 336 337 339 335 337 339 338 338 338 339 339 337 335 337
339 341 339 343 342 341 339 339 340 340 339 339 337 337 338 336 335 336 336 336 337 337 337 339 338 339 340 340 341 341 343 343 341 339 340 338 338 341 341 342 340 340 341 340 341 339 339 340 339 336 338 336 335 337 339 336 330 328 327 329 332 334 333 333 335 337 338 339 338 337 336 337 337 338 340 336 337 337 336 339 339 338 339 337 338
340 341 344 344 341 339 340 339 340 339 339 339 337 337 340 340 339 340 338 338 341 341 340 340 338 338 339 340 340 342 340 340 340 339 340 337 340 342 339 340 341 341 339 339 338 338 338 338 337 335 333 335 335 338 338 338 333 332 331 326 324 325 327 331 334 333 334 336 336 337 336 336 335 337 339 338 338 336 337 335 335 335 336 336 338
339 340 340 341 340 339 338 338 337 337 338 339 338 337 337 340 340 339 340 342 340 340 338 338 338 337 337 340 341 341 340 338 341 338 337 339 341 341 340 340 340 341 340 338 337 334 337 337 337 336 335 330 331 333 338 338 335 331 322 322 324 324 317 323 327 332 335 335 335 337 337 333 336 335 336 335 337 337 337 338 336 335 336 336 336
340 337 334 336 337 338 338 337 336 336 338 338 339 336 337 337 338 339 338 337 338 336 335 335 333 334 337 338 340 339 340 340 341 340 340 341 342 342 340 340 340 340 340 338 336 336 334 336 336 335 334 333 329 332 336 338 337 335 331 325 321 319 322 325 327 327 335 333 333 335 337 332 335 337 335 334 336 336 334 335 337 338 336 337 335
339 336 333 333 336 336 338 335 335 334 337 338 339 336 334 338 335 334 332 331 330 330 330 331 333 332 332 336 339 339 342 342 342 342 340 342 343 343 342 341 341 340 339 337 338 337 336 336 335 337 335 336 334 331 331 335 338 336 335 332 329 324 322 326 327 318 331 333 331 332 332 334 334 332 335 334 335 334 335 337 338 336 337 337 340
336 333 330 331 334 338 337 335 336 334 337 338 338 338 338 337 336 334 334 334 331 330 335 335 335 337 338 342 341 344 341 339 339 340 339 338 343 343 343 342 341 341 340 338 337 336 335 335 336 334 337 335 335 329 331 332 334 336 336 335 335 334 333 326 321 322 318 326 333 329 329 332 332 332 332 332 333 335 334 335 335 334 334 335 336
332 330 332 330 330 335 338 337 336 334 337 338 337 338 337 337 336 334 333 333 335 334 333 334 337 340 339 340 341 343 339 338 338 338 339 338 341 342 343 341 341 340 337 338 337 337 338 336 338 338 337 336 335 332 330 332 330 332 335 334 332 335 335 331 329 325 322 319 324 327 330 333 335 334 333 332 332 332 332 333 333 334 336 335 333
331 330 333 334 334 336 336 335 334 335 336 337 336 336 337 336 334 332 332 335 333 333 334 335 336 338 341 341 339 337 338 339 338 338 338 338 339 339 339 338 339 337 334 338 338 337 337 337 338 338 337 335 335 334 334 332 332 331 332 333 331 333 333 332 332 329 327 321 319 322 326 331 332 331 331 332 332 332 331 332 332 332 334 333 333
337 336 338 336 336 334 335 333 330 332 333 334 335 336 338 337 336 336 335 334 334 334 333 333 336 339 339 336 336 336 337 337 338 338 338 337 337 338 336 336 336 334 333 333 334 338 339 339 339 336 337 335 338 336 334 335 336 334 332 330 330 329 329 330 331 330 327 327 320 320 323 324 322 326 330 330 331 332 331 332 332 332 334 334 331
338 338 338 336 336 336 335 332 331 332 334 335 335 335 336 336 336 336 334 332 334 332 333 332 336 339 335 334 335 335 336 336 338 338 337 337 337 337 336 335 336 335 332 332 333 331 333 334 334 335 338 335 334 335 336 338 336 334 333 332 333 330 329 324 325 328 324 322 322 323 324 325 323 322 327 329 330 330 331 332 331 330 333 331 332
Wind_Speed
12 18 17 16 13 14 14 15 16 17 17 17 17 17 18 19 20 20 20 19 19 17 16 15 15 15 15 15 14 13 13 13 13 13 13 14 14 14 13 13 13 12 13 14 14 14 14 13 13 14 14 14 13 12 12 12 13 14 14 14 14 15 14 15 14 16 17 18 16 17 18 17 16 16 15 15 14 12 12 11 12 12 12 14 16
16 15 15 15 14 14 15 15 17 17 16 16 18 18 18 19 19 19 19 19 19 18 16 15 15 15 14 14 13 13 12 13 13 13 12 13 14 13 13 13 12 12 13 14 14 14 13 13 13 13 13 13 14 13 12 12 12 13 13 14 14 13 13 14 15 15 16 17 17 18 17 16 17 17 17 15 16 18 17 15 14 10 11 15 16
16 15 14 16 15 15 15 16 17 17 17 17 18 18 18 19 20 19 19 19 18 17 16 15 15 15 14 14 13 13 12 12 12 11 12 12 13 13 13 13 12 13 13 13 13 13 13 13 14 14 13 13 13 14 13 12 13 13 13 13 12 10 11 12 13 13 13 16 17 17 18 18 17 16 14 16 18 17 17 16 16 15 11 15 14
16 14 14 16 16 14 15 15 16 17 17 17 18 19 18 18 19 19 19 19 18 17 17 16 15 15 15 13 13 12 11 10 11 12 12 12 12 12 13 14 13 14 13 13 13 13 13 13 13 14 14 13 13 13 13 12 12 11 12 11 10 9 8 9 11 12 13 14 14 12 8 11 13 16 17 18 18 18 17 17 16 17 16 15 15
16 15 14 15 16 14 15 15 17 17 17 18 18 18 19 18 19 18 18 18 17 17 16 15 16 16 15 14 13 12 11 11 11 12 12 11 10 13 14 14 13 14 14 13 13 12 12 12 12 12 13 13 13 12 12 11 11 11 11 10 8 7 7 5 6 9 10 10 11 7 8 11 11 16 16 17 16 15 15 16 15 15 15 16 15
16 15 14 14 15 16 15 16 17 17 18 18 18 18 19 18 19 19 18 18 17 18 17 16 16 16 15 14 14 12 11 11 11 11 11 10 9 12 14 14 13 15 14 13 13 12 11 11 11 11 12 12 12 12 12 11 10 10 10 9 6 6 6 3 3 1 2 6 8 7 9 10 11 11 15 14 14 14 15 15 14 13 13 14 15
17 14 14 14 13 15 14 16 17 17 18 18 18 18 19 19 20 20 18 18 18 17 17 17 16 16 15 16 15 13 12 13 12 11 10 10 10 9 13 13 13 14 13 12 12 11 10 10 10 10 11 11 12 12 11 11 10 10 9 9 7 5 6 4 4 2 9 4 6 7 8 10 11 9 14 14 13 13 14 15 14 13 14 14 15
14 14 14 14 13 15 15 16 17 18 18 18 18 18 20 19 19 18 19 19 18 17 18 18 16 16 16 16 15 13 13 13 12 11 10 11 9 8 10 13 13 13 12 11 11 10 10 9 9 9 8 9 10 11 10 10 10 9 9 8 7 5 4 5 8 9 9 8 5 6 8 10 11 9 14 14 12 12 13 15 14 15 15 15 13
14 16 15 14 14 19 14 16 17 18 18 17 18 19 19 19 18 19 19 19 18 19 19 17 17 16 16 15 15 13 13 12 12 12 12 10 10 10 9 10 11 12 11 9 9 8 9 8 8 8 8 8 9 9 9 9 9 8 8 7 6 4 3 8 8 10 9 6 6 10 8 11 11 9 11 13 15 14 12 12 14 15 15 14 14
14 13 15 14 15 17 16 16 17 17 18 18 18 19 19 19 19 19 19 18 18 17 17 17 17 17 16 16 15 14 13 13 13 14 13 12 12 11 8 8 11 11 11 10 9 9 8 8 8 8 8 8 8 7 7 7 7 8 7 6 4 3 7 11 8 11 3 8 10 11 15 14 11 10 12 12 14 15 15 17 15 14 12 15 15
14 14 14 15 18 16 16 16 16 17 18 18 18 20 19 19 20 19 20 18 18 17 16 16 17 16 16 15 15 14 15 14 13 13 14 14 12 9 8 8 11 11 11 10 10 9 8 7 7 7 6 6 5 5 4 4 5 6 5 3 3 4 8 9 12 1 9 9 9 9 13 14 11 10 12 11 12 14 14 15 14 14 14 14 14
14 13 13 14 18 16 16 16 16 16 18 18 21 20 19 18 18 19 18 18 17 17 16 15 15 16 17 16 15 15 15 15 14 14 12 12 11 9 8 10 11 11 11 10 9 8 7 7 7 5 4 4 4 4 4 4 4 4 3 2 3 2 7 10 10 4 7 11 13 12 12 13 12 12 17 17 15 15 13 13 13 14 13 13 12
14 13 13 15 17 16 15 15 15 17 19 18 17 18 17 17 18 18 17 17 16 17 17 15 14 15 16 16 16 15 15 15 13 12 12 12 12 11 9 11 11 11 10 10 9 8 7 6 5 4 4 4 3 3 4 5 5 4 1 1 3 7 8 11 8 7 6 9 9 11 12 11 12 14 13 15 14 13 14 13 12 13 13 13 13
15 13 14 15 14 18 14 14 15 16 17 17 17 17 17 17 18 17 15 16 16 15 14 14 14 15 13 13 15 15 15 15 14 13 12 12 12 11 9 11 11 11 11 10 9 8 7 5 5 5 5 5 5 5 5 6 6 4 1 3 7 8 10 13 6 8 9 10 11 12 11 9 11 13 15 14 15 16 15 14 14 14 14 14 14
14 16 15 15 16 16 17 14 15 15 16 16 16 16 16 16 15 14 14 15 15 14 15 15 16 14 14 11 12 15 15 15 14 14 13 12 12 11 10 10 12 12 11 10 9 8 7 7 7 6 6 6 7 7 7 7 6 4 0 4 8 8 12 9 6 5 7 10 10 11 11 10 12 11 13 14 14 13 14 14 14 14 14 13 12
16 15 15 14 16 16 15 16 13 14 15 15 15 15 15 15 15 14 14 14 15 16 16 18 18 17 14 12 12 16 16 14 13 13 13 11 11 11 11 11 12 12 11 10 9 8 7 8 7 6 6 7 8 8 8 8 6 3 0 5 7 11 11 10 2 4 7 8 10 10 11 10 11 12 14 14 14 14 13 14 14 14 14 13 13
16 17 16 16 18 16 15 15 14 14 14 14 15 15 15 15 14 15 15 15 16 17 17 18 18 18 15 13 16 16 16 15 14 14 14 13 12 12 12 12 12 11 10 9 7 7 8 8 7 6 6 8 8 8 7 7 6 4 1 3 6 11 12 11 1 7 6 9 9 9 9 8 9 13 13 14 13 13 13 13 13 13 13 13 13
14 16 17 18 17 17 15 15 16 15 15 14 14 14 14 14 14 15 16 15 17 17 17 17 17 17 16 17 17 16 15 15 14 13 13 12 12 13 12 12 12 11 10 8 7 8 8 8 7 7 7 8 8 8 8 6 6 4 1 5 7 11 12 12 5 5 8 10 10 9 9 10 13 11 12 12 12 13 13 13 13 12 13 13 13
8 13 16 18 17 18 17 15 14 14 15 12 12 13 14 13 14 15 15 16 16 17 17 16 17 16 18 17 16 16 15 15 14 13 12 10 13 15 14 12 11 11 9 8 8 7 8 7 7 7 6 7 8 8 8 7 6 4 3 5 9 10 12 10 7 7 9 9 8 9 9 12 12 12 13 13 12 12 13 12 12 12 12 12 12
4 4 11 13 15 16 15 14 14 14 13 12 12 15 14 14 14 14 14 14 16 16 17 17 18 18 17 15 14 14 14 13 15 13 12 11 12 12 14 13 12 11 9 7 7 7 6 6 7 8 7 5 7 8 8 7 6 4 5 7 8 9 8 1 9 9 8 9 8 8 10 12 12 11 11 11 11 12 11 11 12 12 12 12 12
3 1 10 5 9 12 15 12 14 15 14 13 12 12 13 15 13 13 13 14 14 16 16 16 14 15 15 13 12 11 11 10 12 12 14 11 10 12 14 13 13 11 9 7 6 6 4 4 6 6 8 6 6 6 6 6 6 5 6 8 8 7 2 5 6 7 9 8 8 9 12 11 11 12 11 11 11 11 11 11 12 12 12 11 11
7 4 6 11 10 3 6 6 9 12 8 6 8 8 11 13 13 12 12 13 14 15 14 12 13 12 13 12 9 7 7 9 9 12 10 12 13 13 13 13 12 11 10 8 7 5 3 4 4 5 6 7 8 5 5 5 6 6 7 8 7 5 3 2 5 7 8 7 8 9 10 10 11 11 12 11 11 10 10 11 11 12 12 12 12
3 4 5 7 7 7 6 3 7 10 6 3 2 7 11 10 12 11 10 13 13 13 11 12 11 11 11 9 7 7 7 8 8 9 10 12 13 14 14 13 11 10 9 7 7 6 4 3 2 3 4 7 7 3 5 5 5 7 7 7 6 1 2 2 6 7 7 8 8 11 10 10 9 10 11 11 10 9 10 11 10 11 11 11 12
4 3 7 6 6 4 7 7 10 6 4 0 5 6 8 9 9 9 10 10 12 11 10 11 10 10 9 6 5 4 5 4 9 12 12 11 12 13 13 13 12 9 9 7 6 5 5 4 3 2 4 6 5 4 5 4 4 5 5 4 4 4 4 4 7 6 6 9 8 10 10 10 9 10 10 10 10 10 10 10 11 11 11 11 11
7 7 8 7 6 3 5 7 7 7 7 5 6 4 3 8 9 9 10 10 10 9 8 7 9 9 6 3 6 6 4 6 7 7 9 10 10 10 11 9 8 8 9 7 7 6 6 6 4 5 5 7 6 4 3 4 5 4 5 3 3 4 4 3 7 7 7 8 8 9 10 8 8 8 9 9 10 9 8 9 10 10 10 10 11
6 8 11 12 12 8 7 5 6 6 7 5 6 8 9 8 9 9 8 8 9 8 7 4 6 9 7 5 3 6 7 6 7 8 7 7 9 9 9 8 9 8 9 7 6 7 6 6 7 7 8 4 2 4 5 4 4 4 4 4 6 5 5 5 7 8 7 8 8 9 9 9 8 9 9 10 10 10 10 8 9 9 9 10 10
8 8 8 9 18 18 13 9 9 8 6 2 3 4 2 5 8 8 8 8 7 6 6 5 5 5 8 7 7 6 7 8 9 9 8 7 8 7 6 7 7 7 9 6 7 8 8 8 7 6 1 2 5 5 5 5 5 6 5 5 6 6 5 7 8 8 8 8 8 9 8 9 9 10 10 10 9 10 9 10 10 9 8 9 10
7 7 6 3 6 19 19 13 10 7 5 2 1 5 5 5 6 8 7 7 6 5 4 4 3 6 8 11 9 9 10 9 8 8 8 8 7 7 6 6 5 6 6 5 6 7 6 2 3 2 5 7 8 7 6 8 7 6 6 4 11 6 4 10 5 8 7 8 9 9 10 9 9 9 9 9 9 8 8 9 9 9 9 9 9
9 12 10 8 3 8 18 13 6 6 5 2 4 4 5 4 6 6 7 6 4 4 5 2 4 6 6 9 8 8 8 8 9 8 8 7 6 6 6 6 6 7 5 6 7 5 4 4 4 6 4 5 4 4 6 9 7 7 9 9 7 7 7 6 8 6 6 7 7 9 10 10 9 9 10 9 9 9 9 8 8 9 8 9 9
13 14 13 16 13 11 11 12 9 6 6 6 3 5 7 6 4 5 6 6 5 3 5 4 7 5 7 6 7 2 5 7 7 7 6 7 6 6 6 5 5 5 4 4 3 5 5 4 5 5 6 8 6 6 5 5 6 6 5 7 4 11 12 9 6 4 6 7 7 7 9 8 9 10 9 9 9 9 8 8 9 9 8 8 9
11 11 5 4 12 17 16 12 11 9 8 8 8 7 3 4 7 3 7 5 6 7 7 8 4 2 4 6 4 2 2 5 5 5 6 7 6 6 5 5 4 4 4 5 4 4 4 3 4 5 5 5 5 4 5 5 6 6 6 3 12 10 13 9 3 1 5 5 6 7 8 8 9 8 7 6 8 8 9 9 9 9 9 9 9
7 5 2 4 8 11 16 16 13 11 10 9 5 3 4 3 5 6 5 4 4 5 6 5 2 5 6 5 3 1 2 1 3 6 7 7 7 6 5 6 5 4 4 5 4 4 4 6 5 2 2 2 2 3 3 3 4 3 2 9 11 10 7 5 7 6 4 6 7 7 7 7 6 7 7 5 8 9 9 9 9 9 9 9 9
6 5 5 8 12 14 14 14 13 12 10 13 11 9 7 6 7 5 5 6 6 5 6 5 8 4 4 3 3 1 1 3 4 6 7 7 7 5 6 5 4 4 4 4 5 4 5 4 4 3 3 3 3 1 3 2 3 2 5 12 7 7 7 5 5 5 5 4 4 6 6 7 8 5 5 7 6 9 8 8 8 9 9 9 9
8 7 5 6 6 7 10 11 12 11 10 10 11 9 6 6 6 6 6 6 5 5 3 4 5 6 4 4 3 2 2 3 4 6 6 7 7 7 6 5 4 4 3 3 4 5 5 5 4 5 3 4 4 2 3 2 2 2 3 10 10 3 5 6 5 5 5 4 4 5 6 5 6 5 6 7 6 6 7 8 9 9 8 8 9
10 9 8 9 6 9 9 9 11 12 11 10 10 10 9 7 7 7 6 6 6 6 6 6 3 7 4 3 5 4 5 6 8 6 7 7 6 6 6 5 6 5 4 3 4 4 3 5 6 6 5 4 3 4 3 1 1 2 4 4 8 6 5 5 5 5 5 5 3 3 1 4 2 3 5 6 5 5 4 6 9 8 8 8 8
10 11 11 10 9 9 10 11 12 12 10 10 10 9 7 6 5 7 5 5 4 3 4 4 5 4 4 4 6 3 1 3 6 6 4 5 5 5 1 5 7 5 6 5 3 4 3 3 2 2 4 4 4 3 2 2 1 2 3 4 8 4 4 5 5 4 4 4 3 1 2 3 3 2 1 2 4 6 6 5 6 7 7 7 7
11 12 12 12 12 11 12 14 14 13 11 10 9 9 8 7 6 5 5 4 4 4 3 1 4 5 6 4 4 5 6 3 8 1 5 4 2 2 5 7 7 6 5 5 4 3 3 2 2 2 3 5 6 3 3 3 3 4 4 7 4 3 4 5 4 3 4 3 2 3 4 5 3 4 5 4 5 6 6 6 7 6 5 6 7
11 12 13 13 12 11 11 10 10 10 9 9 9 9 8 8 7 5 5 5 4 3 3 4 2 4 5 1 3 3 4 5 5 1 2 4 2 2 2 3 5 6 5 4 3 3 4 3 3 3 3 4 4 2 2 2 2 3 4 7 5 3 3 4 4 3 4 6 6 7 2 3 4 4 1 2 5 4 6 6 6 4 4 5 5
9 11 11 11 11 11 10 9 9 10 9 8 10 9 8 6 5 6 5 5 4 3 3 3 4 5 6 6 5 4 2 5 4 5 4 2 3 3 5 6 6 5 5 5 4 4 4 3 3 2 1 2 3 2 2 2 2 4 4 5 6 6 3 4 2 2 3 1 2 8 5 2 4 1 2 4 4 5 6 5 5 5 5 4 5
10 10 12 11 11 12 11 10 10 9 9 9 9 8 7 6 6 5 5 6 6 5 3 4 3 4 5 5 6 4 7 6 4 4 4 3 2 1 1 7 5 5 5 5 4 5 5 4 4 3 2 2 2 3 3 3 4 4 5 4 5 5 4 2 2 1 3 2 2 5 6 7 5 6 4 5 4 5 5 4 3 4 5 5 4
10 11 11 11 10 10 10 12 11 11 10 10 8 8 8 7 6 6 7 6 5 4 3 4 4 3 4 6 5 5 6 6 4 3 3 1 2 3 7 5 5 5 4 4 2 5 5 4 4 3 3 3 3 3 2 3 4 4 4 6 4 5 6 3 3 1 2 1 2 1 2 4 3 4 6 2 4 4 4 5 4 3 1 5 4
10 10 10 10 11 9 9 10 11 10 9 9 8 7 8 7 7 7 6 6 6 5 6 5 6 5 7 6 7 6 6 6 5 4 3 1 3 6 4 4 4 5 4 3 4 4 5 4 4 4 3 3 3 3 4 4 4 4 5 5 4 2 6 3 2 1 2 1 1 2 3 3 5 2 2 6 4 4 5 5 5 3 2 2 1
10 9 9 9 9 11 8 9 9 9 8 7 8 6 6 5 6 5 7 5 5 5 4 6 6 0 7 8 9 8 7 7 8 6 6 8 8 6 7 5 4 4 5 5 5 5 3 5 5 4 4 3 2 3 4 3 1 1 3 4 4 4 6 4 3 2 1 2 1 2 2 3 4 4 1 2 3 3 3 4 6 2 3 2 2
8 8 6 7 6 7 10 9 10 8 5 5 5 7 8 5 3 4 5 2 2 2 2 4 8 8 6 7 6 6 7 6 8 10 11 8 6 6 4 4 4 5 4 5 3 7 5 4 5 3 3 4 4 4 3 2 1 2 0 0 2 2 5 4 5 0 3 2 2 2 1 4 2 3 2 4 2 3 3 3 6 7 4 4 3
7 9 6 5 4 8 10 9 7 6 5 5 8 8 6 5 6 4 2 1 1 0 3 3 7 6 3 5 8 8 11 10 8 7 4 6 5 4 5 5 5 6 5 5 5 3 6 5 4 5 5 1 2 4 4 4 3 1 2 3 1 2 1 6 6 4 1 3 3 1 0 5 2 2 3 3 2 2 2 4 3 3 6 4 6
8 7 8 5 7 7 7 6 7 5 7 9 9 9 9 8 6 6 6 4 4 5 5 5 5 7 8 10 10 9 7 5 5 4 6 5 5 5 5 6 6 5 4 4 4 3 3 4 6 5 4 5 2 3 4 3 2 6 6 3 4 1 4 6 5 4 1 2 3 0 4 5 4 4 1 3 4 3 4 4 4 4 3 3 4
9 8 1 2 5 8 10 11 9 6 8 8 9 5 6 6 6 6 5 4 4 3 2 2 8 9 5 5 7 6 7 7 6 7 6 6 6 5 5 5 6 5 5 5 5 5 4 3 5 4 2 3 3 2 3 4 3 2 2 4 3 1 5 6 3 6 6 3 3 4 4 4 6 6 3 3 4 4 4 4 3 4 2 4 3
12 11 11 10 11 10 9 11 9 8 8 8 9 8 8 6 6 4 2 3 4 4 5 6 5 3 7 7 6 6 6 6 6 6 6 6 6 6 6 5 5 6 6 5 5 5 3 4 1 3 4 2 2 1 3 3 4 4 4 2 3 4 4 5 4 2 4 5 4 3 4 4 5 5 4 4 5 5 4 3 4 3 3 4 7
12 10 8 14 11 8 11 10 10 10 9 12 11 11 10 9 8 8 8 6 5 5 4 4 6 5 7 6 6 6 6 6 6 5 6 6 6 5 5 5 4 4 3 3 4 5 4 5 4 2 4 1 2 1 1 2 2 2 4 4 4 4 5 5 5 4 3 6 6 6 5 4 4 4 4 5 4 4 4 3 3 4 4 6 8
11 11 11 11 12 11 12 12 13 9 12 15 15 14 13 11 10 9 10 8 7 5 6 7 8 6 6 7 6 6 6 6 6 5 5 6 5 5 5 5 4 4 3 5 4 4 4 4 4 3 4 3 3 3 2 2 1 1 2 3 2 3 2 3 3 3 3 2 4 7 6 7 5 4 4 4 5 5 5 5 4 5 5 6 10
11 12 11 12 12 13 14 15 12 10 9 13 14 13 11 10 10 9 8 8 8 8 7 7 6 6 7 7 6 5 6 6 5 6 5 6 5 5 5 5 5 3 3 4 4 4 4 3 4 5 5 6 4 4 4 1 1 2 4 2 2 1 2 2 4 4 5 4 4 5 6 4 6 6 4 4 6 6 6 5 5 6 4 8 8
Wind_Direction
138 128 127 129 139 135 128 135 141 141 139 138 132 130 127 129 130 130 133 134 136 135 134 129 128 127 125 124 121 121 119 117 116 115 116 120 121 120 118 116 116 112 116 114 111 103 100 97 93 90 91 91 89 88 90 91 82 82 74 78 83 79 79 82 86 84 84 83 81 82 83 82 76 73 74 76 64 56 62 69 72 67 66 62 60
138 131 127 134 131 133 134 136 142 143 140 136 135 134 128 128 130 130 132 135 136 136 136 131 129 127 124 122 121 122 119 120 119 122 125 123 120 119 121 120 119 123 118 118 113 107 104 100 94 93 92 92 95 97 95 88 88 82 76 75 81 84 84 88 91 93 93 90 91 90 89 86 82 76 71 72 75 64 55 55 55 65 67 68 65
125 136 129 133 129 133 136 140 142 140 141 137 135 135 127 129 131 130 132 135 135 137 137 134 130 129 125 124 124 123 123 123 125 125 122 119 123 123 123 121 125 127 122 116 116 113 107 101 97 96 94 93 92 95 100 98 95 80 76 73 75 85 87 92 96 100 103 102 97 92 90 85 88 90 93 80 71 66 63 59 59 64 63 60 63
134 139 131 132 129 134 139 139 140 141 141 139 136 137 130 128 130 131 132 133 134 135 138 136 131 131 129 128 128 126 125 125 124 126 127 129 131 130 126 127 130 126 124 119 121 116 113 107 98 91 91 92 92 95 98 95 89 81 74 73 71 78 93 94 105 112 118 122 112 103 93 93 83 76 74 71 71 71 70 70 69 68 68 63 64
136 142 134 141 141 135 139 140 140 141 141 138 138 137 134 132 132 132 131 131 133 135 135 134 133 133 133 133 134 132 127 124 120 124 127 129 130 130 130 131 134 123 122 123 122 121 115 106 98 92 92 92 92 95 97 98 91 83 77 74 72 71 70 80 115 132 140 138 126 99 95 92 82 72 72 72 70 70 74 76 75 76 75 69 65
139 143 142 141 144 142 138 140 139 140 140 139 136 134 134 133 133 133 132 131 132 133 134 135 136 136 135 137 138 133 128 123 117 119 127 125 124 131 137 133 136 125 128 132 129 122 116 111 107 101 91 88 91 93 97 98 94 86 84 78 71 58 55 43 29 249 141 231 171 132 107 90 85 77 75 77 76 75 73 73 72 70 73 80 75
140 147 146 143 146 143 139 138 137 139 140 139 134 133 133 134 135 135 132 132 132 134 136 139 139 137 136 140 141 137 131 130 127 126 123 123 130 154 140 139 135 131 132 133 127 123 119 115 109 106 97 84 86 89 96 101 101 91 85 78 64 38 33 20 293 217 257 245 201 114 113 103 87 75 71 73 78 79 78 73 74 75 78 71 64
147 152 149 145 145 139 138 138 139 139 140 137 134 133 133 135 135 133 134 134 135 138 141 141 140 139 141 142 142 139 138 137 137 134 125 130 146 139 132 144 136 133 138 138 131 129 127 122 117 112 101 91 84 86 87 90 91 91 84 83 67 36 356 307 280 267 233 213 81 79 81 88 90 88 71 69 70 78 83 79 68 65 62 60 70
148 160 155 138 137 142 140 139 141 142 139 134 133 133 133 133 133 134 135 136 138 141 141 141 142 144 143 144 144 144 145 147 146 139 134 140 133 133 146 139 133 136 140 136 132 134 129 124 119 112 104 96 86 84 83 86 93 92 89 79 74 35 329 289 285 278 278 87 61 38 73 92 87 83 73 69 65 66 68 89 95 77 64 65 67
152 156 146 137 151 142 145 144 143 143 139 134 133 134 134 134 135 136 137 138 141 141 141 143 144 146 145 146 147 150 153 149 140 138 143 142 135 140 145 137 134 127 128 131 138 136 126 122 119 118 106 97 89 76 80 85 92 96 94 87 97 154 236 246 269 272 30 61 72 66 48 63 74 72 74 74 66 63 64 61 55 60 71 75 73
152 152 155 138 150 146 146 146 145 142 139 135 134 136 137 137 139 140 142 141 142 143 142 144 148 149 149 149 150 148 143 130 130 135 143 141 141 139 138 123 119 124 130 141 139 129 126 118 115 97 93 86 80 83 78 92 92 100 101 126 142 225 281 282 298 58 83 90 94 91 76 68 70 72 79 78 78 73 75 72 72 70 72 73 71
146 154 154 138 137 149 145 145 144 142 139 136 140 140 138 139 141 143 144 143 144 144 144 146 149 151 151 151 152 145 134 127 133 140 129 134 132 137 135 125 124 125 138 142 130 125 117 110 103 90 83 87 85 93 104 109 106 97 93 74 269 282 282 280 287 72 65 68 67 66 70 77 83 82 77 72 73 71 68 74 74 74 72 73 74
148 155 148 130 147 147 143 143 142 142 145 141 138 138 141 143 145 145 144 145 147 148 149 149 151 149 152 152 150 147 135 128 128 125 125 123 126 131 136 131 128 133 142 128 125 124 117 107 99 88 77 77 83 96 110 120 123 105 78 318 308 259 250 250 270 83 92 89 94 86 85 85 81 79 79 81 83 82 79 78 82 81 78 76 72
159 146 129 144 153 147 139 141 143 144 144 144 143 141 144 147 147 145 143 146 149 150 149 144 134 143 147 143 148 149 141 133 131 128 126 127 128 132 135 137 133 136 132 129 126 119 107 107 87 76 77 75 86 102 114 119 118 114 93 266 265 281 301 289 252 76 74 81 76 79 79 75 75 81 82 88 82 71 75 79 80 79 76 76 75
154 145 151 147 149 151 142 142 145 146 146 145 144 144 145 143 141 138 138 144 146 141 137 132 139 139 144 147 152 144 140 136 132 131 130 133 135 134 137 139 136 134 134 130 128 121 112 92 77 71 76 83 93 101 112 118 115 113 213 293 295 295 295 308 75 97 103 93 91 89 85 85 73 81 86 81 77 84 81 79 79 80 80 82 82
148 151 149 143 148 150 153 146 143 144 145 144 143 142 138 134 132 135 137 135 137 137 140 142 141 144 154 154 150 148 143 137 133 134 134 137 141 145 143 140 136 135 133 132 126 121 106 91 85 83 85 97 105 108 113 115 110 112 282 302 300 301 289 298 72 95 90 92 87 85 83 83 100 86 81 82 83 88 86 82 82 81 82 81 79
154 152 149 144 149 152 153 154 147 142 142 142 140 137 133 131 133 134 136 138 141 145 145 138 144 149 156 153 155 151 141 135 138 139 141 142 145 141 142 140 138 132 132 130 122 118 103 92 92 92 95 110 118 115 113 115 113 113 308 328 295 283 284 285 12 66 74 86 92 89 88 90 81 86 85 82 88 87 85 86 83 82 82 82 81
156 154 154 149 152 155 152 155 153 156 149 143 136 134 134 133 130 135 138 138 142 140 140 142 145 148 155 158 153 146 137 138 140 142 143 143 142 140 139 142 135 131 135 131 119 111 96 93 91 91 103 113 119 124 121 120 119 111 149 273 282 285 295 303 87 87 78 79 79 83 88 93 88 94 96 95 89 89 86 85 83 85 84 84 80
166 153 152 155 157 155 154 153 156 154 150 151 147 136 134 130 129 132 134 138 139 140 140 141 144 150 152 149 149 145 140 141 141 142 141 138 144 141 142 138 134 131 132 127 117 105 100 100 97 89 98 113 122 126 131 129 126 134 225 251 272 286 297 290 119 113 85 75 83 89 93 93 95 89 88 94 95 92 91 91 91 85 85 82 82
355 3 161 164 160 153 152 154 157 153 149 149 147 146 132 128 128 130 133 136 138 139 142 147 148 147 146 145 147 149 148 147 148 147 141 140 146 149 139 138 137 130 127 123 120 108 112 111 104 110 103 111 126 133 136 141 140 158 222 249 262 279 281 50 67 74 82 82 88 93 103 100 92 96 98 90 92 93 91 89 93 96 88 82 75
346 327 312 146 158 153 151 153 151 147 148 147 146 144 134 130 129 127 132 136 139 143 145 144 140 142 145 145 152 159 157 152 160 158 148 151 141 133 147 140 133 131 127 129 122 118 117 107 108 112 123 132 131 137 141 149 155 181 230 251 266 266 221 119 125 106 96 102 98 99 97 103 108 102 98 99 95 99 99 98 96 92 92 94 94
100 40 356 4 353 34 118 137 136 145 124 132 141 140 143 150 146 144 146 145 146 150 152 152 149 150 147 151 160 154 158 157 162 153 155 144 139 138 143 144 137 132 134 134 123 121 123 108 121 123 130 140 161 163 166 166 175 192 231 252 258 249 93 65 88 96 98 95 102 107 111 111 104 106 105 103 104 98 98 95 94 94 93 93 90
87 124 105 42 38 345 21 55 86 65 100 139 125 147 155 155 151 154 154 158 157 159 158 153 160 152 156 162 148 147 165 158 154 161 154 144 138 137 141 142 140 133 132 129 130 128 127 144 134 153 157 180 197 175 191 178 187 194 233 245 255 129 101 115 99 91 82 91 97 112 115 111 118 106 104 110 110 108 104 107 101 97 96 97 99
119 105 101 67 63 51 95 65 85 86 115 69 151 156 161 158 161 158 159 161 161 162 163 157 156 150 157 152 150 143 141 169 140 141 140 142 140 135 140 139 142 142 137 143 139 149 145 160 177 189 210 205 208 183 191 179 187 191 204 227 226 127 163 171 114 106 104 108 111 125 121 128 117 115 112 109 108 113 113 111 109 105 102 103 102
148 134 110 109 100 38 77 74 88 139 175 201 167 132 185 172 161 159 164 163 164 160 152 159 146 147 148 168 152 148 192 165 147 153 161 158 152 152 149 159 162 163 177 165 176 160 192 174 176 210 211 208 214 197 199 172 210 197 211 228 240 168 181 139 119 109 109 103 120 134 126 124 108 105 119 117 111 111 114 109 107 107 107 100 101
147 157 159 145 138 137 118 122 147 194 187 183 163 169 181 183 160 161 160 167 162 157 137 167 159 148 154 167 153 162 181 144 161 163 164 168 170 161 176 168 173 167 186 170 186 164 190 189 196 201 217 214 264 247 224 185 174 218 221 224 247 198 188 149 93 111 114 116 128 132 136 128 119 120 121 126 127 125 119 113 115 110 104 111 108
162 174 180 161 151 139 145 158 158 182 197 199 181 157 197 191 159 152 165 166 156 149 147 145 171 148 161 161 184 181 165 176 166 173 172 174 173 177 174 169 171 156 191 173 174 177 199 198 191 203 130 221 228 228 221 227 215 219 199 210 259 215 209 88 108 103 115 123 125 132 126 123 129 128 124 134 131 122 125 124 121 122 118 107 107
152 187 165 172 159 142 142 153 168 170 178 160 56 33 261 208 157 159 170 135 139 152 131 150 153 185 165 187 164 179 170 162 170 168 168 170 174 162 166 155 155 156 178 164 175 188 197 169 144 145 207 218 218 215 209 217 217 214 211 198 232 193 142 98 133 113 120 128 134 141 142 144 135 125 128 127 128 127 127 125 125 116 117 116 114
170 171 156 143 138 137 130 140 154 149 135 157 117 207 250 251 147 177 148 126 134 149 140 147 211 189 191 167 174 173 164 162 167 165 172 165 158 152 154 160 159 161 171 152 193 163 158 184 186 204 201 227 232 216 215 227 208 195 200 211 203 209 125 94 91 103 125 123 127 138 147 141 127 127 130 132 130 130 131 126 119 119 114 103 97
174 166 161 156 151 138 122 133 154 152 108 134 180 225 206 201 145 219 126 147 163 148 138 192 217 196 176 170 156 176 167 163 159 166 157 150 152 157 157 147 152 134 166 146 138 159 170 173 187 191 196 210 210 205 225 220 227 210 234 203 187 44 21 85 37 127 128 130 129 140 146 132 129 135 137 135 130 131 127 122 114 110 110 111 112
157 167 192 262 164 143 137 146 154 136 142 159 192 194 259 184 181 158 142 155 159 175 187 195 171 70 290 136 119 132 161 156 160 161 148 155 154 155 148 142 149 144 144 133 148 158 168 164 200 199 195 210 208 213 229 219 231 219 209 205 56 52 54 72 121 210 107 122 144 140 136 134 133 131 140 135 132 127 131 125 120 117 118 119 113
177 193 223 118 147 120 133 141 150 148 154 163 153 144 152 169 160 147 150 140 159 176 178 182 164 174 183 115 101 38 340 153 167 159 159 158 154 157 149 152 139 142 138 136 149 175 183 182 202 243 280 273 234 237 252 272 257 275 198 59 68 96 90 132 154 133 122 166 143 148 142 137 131 139 129 117 133 137 133 132 124 125 123 114 106
176 190 150 161 156 143 144 146 146 148 144 154 165 155 157 166 156 157 156 168 167 175 191 186 180 160 84 99 117 44 345 284 183 173 168 159 151 149 145 135 131 127 135 147 159 182 186 154 184 201 201 218 245 222 238 266 284 339 51 69 91 96 130 120 104 111 156 138 126 141 151 144 141 119 127 129 132 142 135 135 131 126 128 120 113
165 163 120 169 162 129 128 133 138 144 157 162 160 155 154 150 160 157 162 169 163 183 205 229 128 136 169 160 157 183 175 256 238 181 181 154 154 154 147 139 128 127 124 156 174 203 163 190 189 192 187 214 197 201 219 210 223 213 93 92 96 117 115 114 111 132 127 133 133 154 147 162 133 140 145 149 141 135 144 140 137 131 130 120 118
164 159 142 146 127 114 116 123 144 146 157 159 157 155 152 146 151 153 162 174 179 198 183 210 126 107 170 160 185 194 210 170 236 217 177 154 141 149 146 146 147 161 152 162 210 182 165 179 180 195 176 208 203 182 233 100 94 23 53 135 106 88 94 119 121 135 144 129 160 163 135 79 16 149 142 144 146 123 127 139 137 140 138 135 130
153 142 127 115 113 130 131 130 141 150 154 155 157 151 149 148 142 163 163 182 192 187 190 197 119 192 155 178 198 187 227 222 271 242 166 152 140 119 126 164 163 171 155 184 204 173 156 208 160 177 177 196 191 180 172 121 103 76 82 78 73 108 87 115 127 138 144 136 130 111 117 92 163 179 75 106 139 127 117 123 126 143 142 137 135
141 144 139 135 147 145 143 143 149 156 159 156 151 154 156 155 163 166 170 189 208 187 213 141 169 196 136 162 185 161 246 195 240 184 2 55 65 215 196 165 173 159 146 162 198 158 152 158 154 211 219 202 191 152 137 142 150 151 118 82 113 93 107 102 132 149 137 161 174 161 87 165 148 164 175 209 134 138 128 135 149 151 146 128 133
135 147 152 144 141 142 145 145 142 148 157 161 159 159 159 165 171 174 189 199 200 205 188 160 181 134 132 115 216 203 216 232 169 293 172 148 214 226 166 224 180 144 151 169 176 171 151 167 169 180 213 346 352 108 135 155 138 115 106 113 109 107 112 120 128 163 178 173 153 89 164 170 184 147 141 289 145 136 138 136 138 138 135 129 126
140 145 148 150 144 142 138 139 145 151 158 159 164 164 165 162 173 193 205 204 196 197 172 157 152 151 133 177 213 188 244 277 144 201 170 182 199 210 162 215 162 150 149 164 160 161 142 162 168 147 340 265 142 130 148 113 120 106 122 123 140 143 134 106 122 163 150 112 107 137 163 213 121 179 183 187 131 140 136 149 156 157 150 141 148
142 146 149 149 151 149 147 153 149 151 162 166 172 172 170 175 187 201 212 215 202 185 172 160 149 162 149 167 182 195 185 212 181 186 170 209 224 27 226 203 150 158 150 163 169 150 155 153 145 143 141 114 94 129 141 147 126 129 118 102 86 91 99 119 119 349 29 124 215 168 159 180 143 159 165 154 150 130 146 153 160 141 138 156 149
144 150 152 152 156 153 148 157 155 158 170 173 173 179 175 183 188 199 208 203 193 177 173 146 147 167 163 179 186 179 195 184 194 190 235 264 106 180 222 192 166 140 162 149 155 127 144 155 133 150 163 165 151 144 137 152 151 142 128 111 106 106 134 108 86 68 103 150 223 106 88 114 95 100 128 141 119 169 154 137 121 109 125 141 162
152 153 153 146 143 140 153 157 163 166 172 175 173 174 185 182 185 192 201 200 181 175 184 157 169 188 187 164 180 191 195 184 188 184 211 229 159 233 157 201 169 134 91 115 127 131 151 158 155 158 180 166 153 171 142 187 177 177 156 131 112 126 94 131 121 147 134 139 20 55 115 62 92 97 92 143 164 187 152 139 142 146 141 70 124
152 154 138 138 141 155 164 162 164 166 175 178 178 166 176 208 194 182 196 198 191 188 174 149 114 352 175 182 179 189 191 196 188 177 176 208 210 173 190 150 161 114 133 165 147 134 186 162 172 178 174 172 161 152 184 250 328 286 177 163 139 153 144 98 126 126 40 64 148 137 102 124 148 122 121 79 85 56 24 113 93 90 65 60 61
161 133 118 146 165 164 166 165 159 167 188 188 161 119 187 216 180 175 199 177 141 137 93 174 140 185 195 194 194 189 200 211 191 171 196 169 203 175 145 152 140 133 143 133 185 168 172 163 175 187 189 174 182 161 200 128 280 65 150 274 181 200 155 152 129 19 146 146 98 92 89 96 52 146 119 87 39 42 72 53 97 117 117 128 140
161 131 134 155 183 189 180 171 145 160 198 182 169 141 174 196 175 148 121 144 97 36 163 178 148 202 209 203 189 193 200 203 169 184 145 155 163 148 148 143 141 141 152 152 180 170 167 181 155 191 201 308 211 157 180 159 199 163 62 145 174 208 82 125 138 126 92 119 115 104 343 97 125 52 84 109 109 142 136 92 64 87 135 154 131
149 123 133 176 178 194 175 153 149 164 197 193 184 167 177 183 162 180 178 187 179 186 197 175 184 190 202 191 158 211 184 168 162 160 154 141 151 145 143 153 152 152 160 156 158 158 175 201 158 192 214 117 308 174 185 175 238 160 178 158 178 323 150 153 179 135 85 56 167 177 126 141 122 83 32 123 126 79 69 74 101 92 89 108 112
116 93 94 159 237 195 171 164 142 162 187 181 169 163 176 175 167 174 195 188 166 200 190 196 211 183 157 207 149 170 168 155 164 158 151 154 147 147 148 155 152 159 158 155 156 173 174 184 155 184 65 214 132 278 218 169 188 203 217 167 142 184 129 149 162 136 147 143 103 159 91 60 78 86 102 97 122 106 87 85 89 94 90 89 91
121 160 169 168 213 201 175 161 150 176 179 173 165 178 179 168 153 162 121 209 186 153 197 212 257 196 167 162 155 170 160 153 151 150 147 149 148 147 147 152 155 158 160 158 164 159 186 149 192 79 82 29 354 234 250 210 194 176 200 201 160 141 172 156 186 203 161 146 149 105 114 128 108 102 96 106 87 87 91 83 89 91 84 110 95
153 171 184 153 177 182 171 151 151 171 172 174 179 177 171 163 159 166 182 184 183 175 197 216 213 200 170 162 158 156 152 145 148 144 148 140 147 141 143 143 150 137 153 146 145 162 155 137 152 167 125 176 170 163 281 266 224 317 180 209 180 179 183 156 172 181 193 153 155 153 135 124 109 98 89 80 76 89 98 95 86 97 100 84 98
148 171 169 151 159 174 163 153 153 197 179 172 177 176 169 167 166 164 173 171 177 180 189 195 207 174 179 157 154 152 145 145 139 142 132 129 137 133 137 135 126 132 164 130 129 119 132 143 138 170 170 182 194 176 195 224 210 152 315 259 270 147 202 115 177 153 44 351 159 158 150 148 139 131 131 125 123 124 128 134 135 112 103 98 96
157 165 157 157 166 161 148 149 167 198 182 179 178 176 169 171 166 164 169 170 186 179 179 196 191 192 159 157 153 146 146 135 135 124 123 118 126 129 128 134 124 131 125 117 145 149 145 156 169 182 163 175 206 193 197 197 231 203 215 195 170 311 38 132 253 163 149 192 172 143 147 169 133 132 125 129 141 131 127 126 119 99 96 95 97